Location: Capvern
(43.1036°N, 0.3160°E)
Time: 04:07:12
(UTC+00:00)

Okean-O - Pass Details

Date: 16 October 2021
Orbit: 639 x 640 km, 98.2° (Epoch: 02 December)

Event Time Altitude Azimuth Distance (km) Brightness Sun altitude
Exits shadow 19:45:13 33° 222° (SW) 1,081 3.9 -28.2°
Maximum altitude 19:46:28 41° 261° (W) 934 3.8 -28.4°
Drops below altitude 10° 19:50:41 10° 332° (NNW) 2,041 5.7 -29.1°
Sets 19:53:01 0° 340° (NNW) 2,955 6.5 -29.6°
